Weather History for 06344 - July, 2013

Change the Weather History Date:

Saturday, July 6, 2013

  Actual Average Record
Temperature  
Mean Temperature 66 °F -  
Max Temperature 77 °F 69 °F - ()
Min Temperature 54 °F 54 °F - ()
Growing Degree Days 16 (Base 50)    
Moisture  
Dew Point 57 °F    
Average Humidity 73    
Maximum Humidity 100    
Minimum Humidity 44    
Precipitation  
Precipitation 0.00 in - - ()
Sea Level Pressure  
Sea Level Pressure 30.41 in    
Wind  
Wind Speed 4 mph ()    
Max Wind Speed 13 mph    
Max Gust Speed -    
Visibility 6.7 miles    
Events      
T = Trace of Precipitation, MM = Missing Value Source: Averaged Metar Reports

Daily Weather History Graph

Daily Weather History Graph

Search for Another Location

Airport or City:

Trip Planner

Search our weather history database for the weather conditions in past years. The results will help you decide how hot, cold, wet, or windy it might be!

Date:

Astronomy

Jul. 06, 2013 Rise Set
Actual Time 5:30 AM CEST 10:02 PM CEST
Civil Twilight 4:43 AM CEST 10:49 PM CEST
Nautical Twilight 3:30 AM CEST 12:02 AM CEST
Astronomical Twilight 2:19 AM CEST 1:14 AM CEST
Moon 4:11 AM CEST (7/6) 8:24 PM CEST (7/6)
Length of Visible Light 18h 06m
Length of Day
16h 31m
Waning Crescent, 3% of the Moon is Illuminated
Jul 6
Waning Crescent
Jul 8
New
Jul 16
First Quarter
Jul 22
Full
Jul 29
Last Quarter

Hourly Weather History & Observations

Time (CEST) Temp. Dew Point Humidity Pressure Visibility Wind Dir Wind Speed Gust Speed Precip Events Conditions
12:25 AM 57.2 °F 55.4 °F 94% 30.42 in 6.2 mi NNE 2.3 mph - N/A   Unknown
12:55 AM 55.4 °F 55.4 °F 100% 30.42 in 6.2 mi North 1.2 mph - N/A   Unknown
1:25 AM 55.4 °F 53.6 °F 94% 30.42 in 5.6 mi North 2.3 mph - N/A   Unknown
1:55 AM 55.4 °F 55.4 °F 100% 30.42 in 6.2 mi NNE 2.3 mph - N/A   Unknown
2:00 AM 56 °F 55 °F 95% 30.45 in 8 mi NNE 2.2 mph - -   Partly Cloudy
2:25 AM 55.4 °F 53.6 °F 94% 30.42 in 6.2 mi NNE 2.3 mph - N/A   Unknown
2:55 AM 55.4 °F 53.6 °F 94% 30.42 in 6.2 mi NE 2.3 mph - N/A   Unknown
3:25 AM 57.2 °F 55.4 °F 94% 30.42 in 6.2 mi NE 3.5 mph - N/A   Unknown
3:55 AM 55.4 °F 53.6 °F 94% 30.42 in 6.2 mi NE 3.5 mph - N/A   Unknown
4:25 AM 55.4 °F 53.6 °F 94% 30.42 in 6.2 mi NE 3.5 mph - N/A   Unknown
4:55 AM 55.4 °F 53.6 °F 94% 30.42 in 6.2 mi NE 3.5 mph - N/A   Unknown
5:00 AM 56 °F 54 °F 89% 30.44 in 9 mi NE 2.2 mph - -  
5:25 AM 55.4 °F 53.6 °F 94% 30.42 in 6.2 mi Variable 2.3 mph - N/A   Unknown
5:55 AM 55.4 °F 53.6 °F 94% 30.42 in 6.2 mi NE 3.5 mph - N/A   Unknown
6:25 AM 55.4 °F 53.6 °F 94% 30.42 in 6.2 mi NE 3.5 mph - N/A   Unknown
6:55 AM 57.2 °F 53.6 °F 88% 30.42 in 6.2 mi NE 3.5 mph - N/A   Unknown
7:25 AM 59.0 °F 55.4 °F 88% 30.42 in 6.2 mi NE 4.6 mph - N/A   Unknown
7:55 AM 60.8 °F 55.4 °F 82% 30.42 in 6.2 mi ENE 4.6 mph - N/A   Unknown
8:00 AM 61 °F 56 °F 77% 30.44 in 9 mi East 6.7 mph - -   Partly Cloudy
8:25 AM 62.6 °F 57.2 °F 82% 30.42 in 6.2 mi East 5.8 mph - N/A   Unknown
8:55 AM 62.6 °F 57.2 °F 82% 30.42 in 6.2 mi East 4.6 mph - N/A   Unknown
9:25 AM 64.4 °F 59.0 °F 83% 30.42 in 6.2 mi East 4.6 mph - N/A   Unknown
9:55 AM 68.0 °F 59.0 °F 73% 30.42 in 6.2 mi East 4.6 mph - N/A   Unknown
10:25 AM 68.0 °F 59.0 °F 73% 30.42 in 6.2 mi East 4.6 mph - N/A   Unknown
10:55 AM 71.6 °F 60.8 °F 69% 30.42 in 6.2 mi East 5.8 mph - N/A   Unknown
11:00 AM 71 °F 61 °F 63% 30.44 in 7 mi East 6.7 mph - -   Scattered Clouds
11:25 AM 71.6 °F 62.6 °F 73% 30.42 in 6.2 mi East 4.6 mph - N/A   Unknown
11:55 AM 71.6 °F 60.8 °F 69% 30.42 in 6.2 mi ESE 5.8 mph - N/A   Unknown
12:25 PM 73.4 °F 62.6 °F 69% 30.42 in 6.2 mi ENE 5.8 mph - N/A   Partly Cloudy
12:55 PM 73.4 °F 60.8 °F 65% 30.42 in 6.2 mi NE 8.1 mph - N/A   Unknown
1:25 PM 75.2 °F 60.8 °F 61% 30.42 in 6.2 mi NE 8.1 mph - N/A   Partly Cloudy
1:55 PM 75.2 °F 59.0 °F 57% 30.42 in 6.2 mi NE 9.2 mph - N/A   Partly Cloudy
2:00 PM 75 °F 59 °F 48% 30.43 in 12 mi NE 8.9 mph - -   Partly Cloudy
2:25 PM 75.2 °F 59.0 °F 57% 30.42 in 6.2 mi NE 9.2 mph - N/A   Unknown
2:55 PM 75.2 °F 59.0 °F 57% 30.39 in 6.2 mi NE 9.2 mph - N/A   Unknown
3:25 PM 77.0 °F 59.0 °F 54% 30.39 in 6.2 mi NE 8.1 mph - N/A   Unknown
3:55 PM 77.0 °F 59.0 °F 54% 30.39 in 6.2 mi NE 6.9 mph - N/A   Scattered Clouds
4:25 PM 77.0 °F 59.0 °F 54% 30.39 in 6.2 mi NE 8.1 mph - N/A   Scattered Clouds
4:55 PM 77.0 °F 57.2 °F 50% 30.39 in 6.2 mi NE 8.1 mph - N/A   Unknown
5:00 PM 77 °F 59 °F 44% 30.40 in 14 mi NE 6.7 mph - -  
5:25 PM 77.0 °F 59.0 °F 54% 30.39 in 6.2 mi ENE 8.1 mph - N/A   Scattered Clouds
5:55 PM 77.0 °F 60.8 °F 57% 30.39 in 6.2 mi ENE 6.9 mph - N/A   Unknown
6:25 PM 75.2 °F 60.8 °F 61% 30.39 in 6.2 mi ENE 8.1 mph - N/A   Partly Cloudy
6:55 PM 75.2 °F 60.8 °F 61% 30.36 in 6.2 mi ENE 10.4 mph - N/A   Unknown
7:25 PM 75.2 °F 60.8 °F 61% 30.36 in 6.2 mi ENE 10.4 mph - N/A   Unknown
7:55 PM 73.4 °F 59.0 °F 61% 30.36 in 6.2 mi ENE 11.5 mph - N/A   Unknown
8:00 PM 73 °F 58 °F 50% 30.39 in 12 mi NE 11.2 mph - -   Partly Cloudy
8:25 PM 71.6 °F 57.2 °F 60% 30.39 in 6.2 mi NE 12.7 mph - N/A   Unknown
8:55 PM 71.6 °F 57.2 °F 60% 30.39 in 6.2 mi NE 9.2 mph - N/A   Unknown
9:25 PM 69.8 °F 55.4 °F 60% 30.39 in 6.2 mi NE 9.2 mph - N/A   Unknown
9:55 PM 68.0 °F 55.4 °F 64% 30.39 in 6.2 mi NE 8.1 mph - N/A   Unknown
10:25 PM 66.2 °F 55.4 °F 68% 30.39 in 6.2 mi NNE 4.6 mph - N/A   Unknown
10:55 PM 64.4 °F 55.4 °F 73% 30.39 in 6.2 mi NE 3.5 mph - N/A   Unknown
11:00 PM 64 °F 55 °F 64% 30.42 in 22 mi NE 4.5 mph - -  
11:25 PM 64.4 °F 55.4 °F 73% 30.42 in 6.2 mi NE 5.8 mph - N/A   Unknown
11:55 PM 64.4 °F 55.4 °F 73% 30.42 in 6.2 mi NNE 3.5 mph - N/A   Unknown